Regional Weather Roundup
Issued by NWS Charleston, WV

Home | Current Version | Previous Version | Graphics & Text | Print | Product List | Glossary Off
Versions: 1 2 3 4 5 6 7 8 9 10 11 12 13 14 15 16 17 18 19 20 21 22 23 24 25 26 27 28 29 30 31 32 33 34 35 36 37 38 39 40 41 42 43 44 45 46 47 48 49 50

000
ASUS41 KRLX 051110
RWRRLX
West Virginia Regional Weather Roundup
National Weather Service Charleston WV
600 AM EST THU MAR 05 2015

Note: "fair" indicates few or no clouds below 12,000 feet with no
significant weather and/or obstructions to visibility.

WVZ003-051200-
Northern Panhandle of West Virginia

CITY           SKY/WX    TMP DP  RH WIND       PRES   REMARKS
WHEELING       LGT SNOW  17  13  84 N10       30.17R VSB 3/4 WCI   5
$$

WVZ009-051200-
Northwest West Virginia

CITY           SKY/WX    TMP DP  RH WIND       PRES   REMARKS
PARKERSBURG    LGT SNOW  20  17  88 VRB7G18   30.22S VSB 1
$$

WVZ006-051200-
Western West Virginia

CITY           SKY/WX    TMP DP  RH WIND       PRES   REMARKS
HUNTINGTON     LGT SNOW  21  19  92 N8        30.20R FOG
$$

WVZ015-051200-
West Central West Virginia

CITY           SKY/WX    TMP DP  RH WIND       PRES   REMARKS
CHARLESTON     LGT SNOW  26  22  84 N7        30.15R FOG
$$

WVZ022-031-051200-
North Central West Virginia

CITY           SKY/WX    TMP DP  RH WIND       PRES   REMARKS
CLARKSBURG     NOT AVBL
MORGANTOWN     LGT SNOW  22  16  78 N12G20    30.13S
$$

WVZ025-035-042-045-051200-
Southern West Virginia

CITY           SKY/WX    TMP DP  RH WIND       PRES   REMARKS
BECKLEY        LGT SNOW  28  26  92 N8        30.04R FOG
LOGAN          LGT SNOW  28  28 100 N3        30.04S
BLUEFIELD      FRZ RAIN  32  28  85 NW6       30.01R FOG
LEWISBURG      MIX PCPN  33  32  96 NE3       29.98R
$$

WVZ047-051200-
Northern Mountains of West Virginia

CITY           SKY/WX    TMP DP  RH WIND       PRES   REMARKS
ELKINS         LGT SNOW  26  24  92 N9        30.05R FOG
$$

WVZ052-051200-
Eastern Panhandle of West Virginia

CITY           SKY/WX    TMP DP  RH WIND       PRES   REMARKS
MARTINSBURG    LGT SNOW  34  28  79 N9G20     30.08R
PETERSBURG     LGT SNOW  33  26  76 MISG        N/A
$$


USA.gov is the U.S. government's official web portal to all federal, state and local government web resources and services.